GFSFLT1_700_temp_111.txt.gz
Temp
8 8 9 9 9 9 9 9 8 8 7 7 6 6 6 5 4 4 4 3 2 2 1 2 1 1 2 2 2 2 2 2
8 8 9 9 9 9 9 9 8 8 7 7 6 6 6 5 4 4 3 3 2 1 2 2 1 1 2 1 2 2 2 2
8 8 9 9 9 9 9 9 8 8 7 6 6 6 6 5 4 4 3 2 2 1 2 2 1 1 1 1 1 2 2 2
8 8 8 9 9 9 9 9 8 8 6 6 6 6 6 5 4 4 3 3 3 2 1 2 2 1 1 1 1 1 2 2
8 8 8 8 9 9 9 9 8 8 7 7 6 6 6 4 4 4 3 3 2 2 1 1 2 2 1 1 0 1 2 2
7 8 8 8 8 8 8 8 9 7 7 6 6 6 6 5 4 3 3 2 2 2 2 2 1 2 2 1 1 1 2 2
7 8 8 8 8 8 8 9 8 7 7 6 6 6 5 5 4 4 3 2 2 2 2 2 2 2 2 2 2 2 2 2
6 7 8 8 8 8 8 8 8 7 6 6 6 6 5 4 4 5 5 2 2 2 2 2 2 2 2 1 1 2 2 2
6 6 6 7 8 8 8 8 7 6 6 6 6 6 4 4 4 4 4 3 3 2 1 2 1 1 2 1 1 1 2 1
5 5 6 7 7 8 8 8 7 6 5 6 6 5 4 4 4 3 3 2 2 1 2 2 -0 1 1 2 1 1 0 0
5 5 5 6 7 8 8 8 7 6 6 6 6 6 5 4 4 3 3 2 2 2 2 1 0 -0 -1 -1 0 -0 0 0
4 5 5 6 7 8 8 8 6 6 6 6 6 6 5 4 4 3 2 2 2 2 1 1 0 0 -0 0 -0 -2 -0 -0
3 4 4 6 7 8 7 7 6 6 6 6 6 6 5 4 4 3 2 2 1 2 2 1 1 1 0 1 -0 -0 0 -0
2 3 3 4 4 4 6 6 5 5 5 5 5 6 5 5 4 3 3 1 1 2 1 2 1 1 1 0 0 0 0 -0
1 2 1 1 2 2 4 4 5 5 5 5 5 5 5 5 4 4 3 2 2 1 1 1 1 1 1 0 0 0 0 -0
0 1 0 1 1 2 2 4 4 4 5 5 5 5 5 4 4 4 4 3 3 2 2 1 1 1 1 1 0 0 0 -0
1 -0 -0 -0 0 1 2 3 4 4 4 5 5 5 5 4 4 4 4 4 4 3 3 2 2 1 1 1 0 0 1 0
-0 0 0 -0 -1 -0 0 1 2 3 4 4 5 4 4 4 4 4 4 4 3 4 4 3 3 2 2 1 0 0 0 -0
-0 -1 -1 -0 -1 -2 -2 -2 1 2 2 3 3 3 3 3 3 4 4 4 4 4 4 3 3 3 2 1 0 -0 -0 -0

GFSFLT1_700_temp_114.txt.gz
Temp
7 7 8 8 8 9 9 9 9 9 8 8 8 7 6 6 6 5 5 5 4 3 3 2 1 2 1 1 0 1 2 1
7 7 8 8 8 9 9 9 9 9 9 8 8 7 6 6 6 6 5 5 4 4 3 1 1 2 1 1 -0 1 2 1
7 8 8 8 8 9 9 9 9 9 9 8 8 7 6 6 6 6 5 4 4 3 3 2 1 2 1 1 1 1 2 2
8 8 8 8 8 9 9 9 9 9 9 8 7 7 6 6 6 5 4 4 4 3 3 3 2 1 1 1 1 1 2 2
7 7 8 8 8 8 9 9 9 9 8 8 7 7 6 6 6 5 4 4 3 3 2 2 2 1 1 1 1 1 1 2
6 6 7 8 8 8 8 9 9 9 8 8 7 6 6 6 6 5 4 4 3 2 2 2 1 2 1 1 1 1 1 0
6 6 7 8 8 8 8 8 9 9 8 7 7 6 6 6 6 5 5 4 3 2 2 2 1 1 2 1 1 1 1 -0
6 6 7 7 7 8 8 8 8 8 8 7 7 6 6 6 5 5 5 5 4 3 2 2 2 1 2 2 1 1 1 -1
5 6 6 6 7 7 8 8 8 8 8 7 6 6 6 6 5 5 5 5 4 2 2 2 2 1 2 2 1 1 1 1
5 5 5 6 6 6 7 8 8 8 7 7 6 6 6 6 6 5 5 4 2 2 2 2 2 1 2 1 2 1 1 1
4 4 5 6 6 6 6 7 8 7 7 6 6 6 6 6 6 5 6 4 3 3 2 1 1 1 1 1 1 1 -0 1
4 4 4 5 5 6 6 6 7 8 7 6 6 6 6 6 5 6 6 4 3 2 2 1 0 0 0 0 0 0 1 1
4 4 4 4 5 5 6 6 7 7 6 6 6 6 6 5 5 6 5 4 3 2 2 1 1 0 0 0 -1 1 1 1
3 3 3 3 4 5 5 5 6 5 5 5 6 6 5 5 5 5 5 4 3 2 1 1 1 0 1 0 -1 0 0 0
2 2 1 1 2 2 3 2 2 4 5 5 5 5 5 4 5 5 5 4 3 2 2 1 1 0 0 0 0 0 1 0
1 1 1 1 1 2 2 2 2 3 4 5 5 5 5 4 5 5 4 4 3 2 2 2 1 1 1 1 1 0 0 0
1 1 1 1 0 1 2 2 2 3 3 4 4 4 4 4 5 5 4 4 4 4 3 2 1 1 1 1 1 1 0 0
0 0 -0 -0 -0 -0 1 1 2 1 2 4 3 3 4 4 4 5 4 4 4 4 4 4 3 3 2 1 1 1 1 0
-0 -0 -0 -1 -1 -1 -1 -0 0 1 2 3 3 3 3 4 4 4 4 4 4 4 4 4 3 3 4 4 2 1 1 0

GFSFLT1_700_temp_117.txt.gz
Temp
8 8 8 8 7 8 8 9 9 9 8 9 9 8 8 7 7 7 7 6 5 4 4 3 3 3 2 3 2 2 2 0
7 7 7 7 7 9 8 9 9 9 9 9 9 9 8 7 7 6 7 6 6 5 4 4 3 3 2 2 2 1 2 -1
7 7 7 7 8 9 8 8 9 9 9 9 9 9 8 8 7 7 6 6 5 5 4 4 4 3 2 2 2 1 1 -1
7 7 7 6 8 8 8 8 9 9 9 9 9 9 8 8 7 6 7 6 5 4 4 4 3 2 3 1 2 1 1 0
7 7 6 6 7 8 8 8 8 9 9 9 9 9 8 7 7 6 7 6 6 4 4 3 3 3 2 2 2 1 1 0
6 6 6 6 6 8 8 8 8 9 9 9 9 8 8 7 7 7 7 6 5 5 4 4 3 4 2 1 2 1 1 1
5 5 5 6 5 8 8 8 8 8 9 9 9 8 8 7 7 7 7 6 5 5 5 4 3 2 2 2 1 0 1 1
4 4 6 6 6 7 7 7 7 8 8 8 8 8 7 7 7 7 7 6 5 4 4 3 2 2 2 2 1 1 1 1
5 5 5 6 6 7 7 7 7 8 8 8 8 7 7 7 7 7 7 6 5 4 4 3 2 2 2 1 1 1 1 1
4 5 5 5 6 6 6 7 7 7 8 8 8 7 7 7 7 7 7 6 5 5 3 2 2 2 2 1 2 0 1 0
4 4 4 5 5 6 6 6 6 7 7 7 7 6 6 7 7 7 6 6 6 5 3 2 2 2 2 1 1 1 1 1
4 4 4 5 5 6 6 6 6 6 6 7 6 6 6 7 7 7 6 5 5 4 3 3 2 2 1 1 1 1 1 1
4 4 4 4 5 5 5 5 5 6 6 6 6 6 6 7 7 7 6 5 5 4 3 2 2 1 1 0 0 1 1 0
3 4 4 4 4 4 5 5 5 5 5 5 5 6 6 6 6 6 6 5 5 4 3 2 2 1 1 1 0 0 0 1
3 3 3 2 1 1 2 3 3 2 3 4 5 5 6 6 6 6 5 5 5 4 3 1 2 1 1 0 0 0 -0 -1
2 2 1 1 1 1 2 2 2 2 3 3 4 5 5 6 6 5 5 5 5 3 3 2 2 1 1 1 0 0 -0 -0
1 1 1 1 1 1 1 2 2 2 2 3 3 4 5 5 5 5 5 5 5 4 3 2 1 2 1 1 1 1 1 0
0 0 -0 -0 -0 -1 -0 1 2 2 2 2 3 3 4 4 5 5 4 4 4 4 4 3 2 2 1 1 1 1 1 0
-0 -0 -1 -1 -0 -0 -1 -0 -0 1 1 1 1 2 3 4 4 4 4 4 4 4 4 4 3 3 2 1 1 1 1 1

GFSFLT1_700_temp_120.txt.gz
Temp
8 8 8 9 9 8 8 8 8 9 9 9 8 8 8 8 8 8 7 6 7 7 6 5 4 4 3 3 2 2 2 2
9 8 8 8 8 8 8 8 8 9 9 9 8 8 9 8 8 8 7 7 7 7 6 5 4 4 4 3 2 2 2 2
8 8 8 8 8 8 8 7 7 8 9 9 8 8 9 9 8 8 8 7 7 7 6 5 5 4 4 3 3 2 2 2
8 8 7 7 7 7 7 8 7 8 8 8 9 9 9 9 9 8 8 7 7 7 6 5 4 4 4 4 3 2 1 2
8 7 7 7 7 7 7 7 7 7 8 8 9 9 9 9 9 8 8 7 7 7 7 6 4 4 4 4 3 2 1 2
8 8 7 7 7 7 7 7 7 7 8 8 8 9 9 9 8 8 8 7 7 7 7 6 5 4 4 4 3 3 2 1
7 7 7 6 6 6 6 7 7 7 8 8 8 9 9 9 8 8 8 7 7 7 7 6 5 4 4 4 3 3 1 1
5 5 5 5 5 5 6 6 6 7 7 8 8 8 8 8 8 8 8 7 7 7 7 6 5 4 4 3 2 2 2 1
4 4 4 4 4 5 6 6 6 6 7 7 7 8 7 7 7 7 7 7 7 7 7 6 5 4 3 2 2 2 2 1
3 4 5 5 5 5 6 6 6 6 6 7 7 7 7 7 7 6 7 7 7 6 6 6 5 5 4 2 2 2 2 1
4 4 5 5 5 5 6 6 6 6 6 6 6 7 6 6 6 6 6 7 7 6 6 6 5 3 3 2 2 2 2 1
3 4 4 4 5 5 6 6 6 6 6 6 6 6 6 6 6 5 6 6 6 6 6 6 4 3 3 2 2 2 1 0
4 4 4 4 5 5 5 6 6 6 6 5 6 5 6 6 5 5 6 6 6 6 6 5 4 3 2 2 2 1 0 1
3 4 4 4 4 5 5 5 5 5 5 5 4 5 6 5 5 5 6 6 6 6 5 4 3 3 2 2 1 0 0 0
3 3 3 4 3 3 3 2 3 4 4 2 3 3 4 4 4 5 6 5 5 5 5 4 3 3 2 1 1 0 -0 0
3 3 3 3 3 2 1 1 1 2 2 1 2 3 2 3 4 5 5 5 5 5 5 4 2 2 2 1 0 0 0 -0
1 2 2 2 1 1 1 1 1 1 2 2 2 2 2 2 4 4 5 5 5 4 4 4 2 2 1 1 1 1 -0 -0
-0 1 1 1 0 0 0 -0 0 1 1 2 2 2 2 3 3 3 4 4 4 4 4 4 3 1 1 1 1 1 1 1
-1 -0 0 0 0 -0 0 0 0 0 0 1 1 1 1 2 3 2 3 4 4 4 4 4 3 3 1 1 1 1 1 1